DECAYED

STARLINK-1487, 45758 (Decayed)

Orbit data source: Space-Track

STARLINK-1487, 45758 was a payload satellite owned by SpaceX/Seattle (US) in LEO that was launched on Sat, 13 Jun 2020 UTC via an FALCON 9 launch vehicle from the Air Force Eastern Test Range (AFETR). Payload-class satellites include a variety of spacecraft equipped with specific instruments for various scientific and technological missions. These include communications satellites like Starlink; space stations such as the ISS; scientific satellites like the Hubble; Earth observation satellites from companies like Planet Labs, Umbra, and HawkEye 360; GPS; miniature CubeSats for education and research; and military/defense satellites.

Not visible in the next 10 days
Identifier
45758, 2020-038AE
Orbit
Decayed
Country
Flag of USUS
Related business
Manufacturer
SpaceX/Seattle
Mission
Decayed Commercial Communications
Bus & Motor
STARLINK, Unknown motor
Mass
260 kg wet, ~248 kg dry
Launch date (UTC)
2020-06-13 (6 years ago)
Launch vehicle
FALCON 9
Launch site
Air Force Eastern Test Range (AFETR)
Object type
Payload
Rocket body
Debris
Shape & HBR
Box + 1 Pan, 10.1 m
Radar Cross Section
13.562 m², Large (>1 m²)

Expand to show TLE details & history
Last TLE update: 8 months ago

TLE from 8 months ago
0 STARLINK-1487
1 45758U 20038AE  25239.86311207  .11994484  12618-4  13402-3 0  9996
2 45758  53.0009 152.3880 0006152 256.9222 103.1142 16.49934373290256
Epoch: 2025-08-27T20:42Z
TLE epoch observation values (Epoch: 2025-08-27T20:42:52.882Z)
Latitude
-0.00001°
Longitude
-134.66672°
Altitude
141.348 km
Speed
7.822 km/s
True Right ascension
10h 09m 33s
True Declination
0° 00' 00"
Sunlit
Object was in daylight at epoch
Visualization orbit readout
Latitude
Unknown
Longitude
Unknown
Altitude
Unknown
Speed
Unknown
Apparent Right ascension
Unknown
Apparent Declination
Unknown
Sunlit
N/A
Visualization observer readout
Local Sidereal Time
19:51:27
Azimuth
Unknown
Elevation
Unknown
Doppler factor
Unknown
Orbital elements
Apogee altitude
143.814 km
Perigee altitude
135.795 km
Semi-major axis
6,517.942 km
Eccentricity
0.00062
Inclination
53.0009°
RAAN
152.388°
Arg. of periapsis
256.9222°
True anomaly
103.18285°
Mean anomaly
103.1142°
Eccentric anomaly
103.14852°
Mean motion
4.12456 °/min
Orbital period
87.28 mins
BSTAR
0.00013402
Loading maneuver chart data...
Computing Atmospheric mass density...

Documentation

Showing up to 5 results
|